Theta_e
311 311 311 311 311 311 311 311 311 312 312 312 313 314 315 315 316 317 317 317 317 316 311 309 310 310 310 310 310 310 311 311 311 316 324 324 317 315 315 313 313 316 316 322 330 327 325 327 328 333 339 343 344 345 343 343 344 349 353 350 347 350 353 354 354 353 352 351 353 355 355 353 352 351 350 350 349 348 346 344 342 343 344 344 345 347 346 346
312 311 311 310 310 310 311 311 311 312 312 312 313 314 315 316 317 317 318 317 318 316 310 309 311 310 311 311 311 314 317 318 320 327 329 320 314 314 315 313 314 317 317 326 330 326 325 327 328 334 339 343 345 344 342 343 345 348 352 350 349 352 354 355 354 354 354 352 352 356 354 353 351 349 352 352 350 348 346 344 345 345 345 346 347 346 345 346
311 312 311 311 310 310 310 311 311 311 312 312 313 315 315 316 317 318 318 318 318 316 311 310 312 312 314 314 316 319 323 327 330 332 326 316 314 315 313 313 317 318 320 328 328 324 325 324 326 335 340 343 344 343 342 343 344 345 350 352 352 353 353 355 354 354 353 352 353 355 354 354 351 350 353 354 350 347 345 344 346 346 346 347 346 346 345 345
311 312 312 311 311 310 310 310 311 311 312 313 314 315 316 317 318 318 318 319 320 318 313 312 315 315 316 318 321 323 326 330 332 331 323 316 315 315 313 315 319 319 322 327 324 323 324 322 326 335 341 343 343 341 341 342 343 345 347 350 352 351 352 355 355 354 354 353 354 355 355 354 351 352 353 352 349 346 345 344 346 346 346 346 345 345 345 346
309 311 312 312 311 310 310 310 311 312 313 314 315 316 317 318 319 319 320 320 320 320 315 313 316 318 317 320 322 323 325 328 329 328 322 317 315 315 313 315 319 319 321 322 319 321 322 323 329 338 342 341 341 340 339 342 341 344 347 349 353 352 353 356 356 355 355 353 353 354 354 354 352 353 353 351 347 345 345 344 345 345 345 346 345 345 346 346
308 309 311 312 312 311 310 310 311 312 314 314 316 317 318 319 319 319 320 321 321 321 317 314 318 320 318 320 320 321 325 326 327 325 320 318 315 314 313 314 318 318 320 320 318 320 321 324 331 340 342 339 340 338 337 340 341 343 347 350 354 354 356 358 357 355 356 353 353 355 354 353 353 353 353 352 348 345 344 343 344 345 345 345 345 346 346 346
307 308 310 311 311 311 310 310 311 313 315 316 317 318 319 319 320 320 321 321 321 321 318 315 319 321 320 321 321 324 327 328 327 322 319 320 315 314 313 313 317 318 319 320 319 321 322 325 333 340 340 337 337 336 336 338 343 344 346 352 353 355 358 358 357 355 355 355 353 353 353 354 353 353 353 351 348 345 343 344 344 345 345 346 346 347 346 346
307 308 309 310 311 311 311 311 312 314 316 317 318 319 320 320 320 320 321 321 321 321 320 317 319 321 321 321 323 328 328 327 328 322 319 320 317 315 313 313 316 318 319 319 319 321 323 326 333 338 337 337 336 335 337 337 342 344 348 353 355 357 358 355 356 355 353 354 353 353 353 354 350 351 353 348 345 344 344 345 345 345 346 345 345 347 347 347
308 308 308 310 310 311 311 311 313 315 316 318 319 320 320 320 321 321 321 322 321 321 321 318 317 320 321 319 323 329 325 324 326 322 320 319 318 317 316 317 317 317 319 318 319 320 322 326 332 336 336 337 334 333 337 336 341 347 350 354 357 358 356 354 355 354 352 351 353 353 353 353 350 351 353 348 344 344 344 345 345 345 345 345 345 346 347 348
308 308 308 309 310 310 310 312 314 316 318 319 320 320 320 320 321 321 322 323 321 320 321 319 317 319 319 320 326 327 322 324 326 323 321 321 321 320 321 322 319 318 319 319 319 319 321 325 329 336 337 336 333 334 339 338 341 350 352 355 358 358 356 354 354 354 352 353 354 353 353 355 354 352 352 350 346 344 344 345 345 345 345 344 345 346 348 348
308 308 308 309 310 310 310 312 315 317 318 319 320 320 320 320 320 321 322 323 322 320 321 320 319 319 320 326 330 323 322 326 327 325 323 324 325 324 323 323 321 320 319 319 318 318 320 322 327 332 334 334 332 335 340 339 343 350 351 355 357 357 358 355 356 354 353 355 355 353 354 356 354 350 351 351 347 344 346 345 344 345 345 345 345 347 349 349
307 308 308 308 309 310 311 312 315 318 319 319 320 320 320 319 320 320 321 322 321 320 321 321 320 320 323 329 327 320 323 325 326 326 324 324 325 324 323 321 321 321 320 320 317 318 319 321 328 332 334 333 330 336 341 341 345 350 351 353 355 356 357 357 358 356 354 357 357 354 353 354 353 350 352 353 348 346 346 345 344 344 345 346 347 348 349 350
307 308 308 308 309 310 310 312 315 318 319 319 320 320 319 319 320 320 321 321 320 320 321 321 320 320 326 328 322 320 323 324 324 325 325 324 324 322 323 320 320 321 321 320 318 318 318 322 329 332 332 331 330 337 340 343 346 351 352 351 351 351 353 357 357 355 354 356 359 357 351 350 352 352 354 353 349 349 347 345 344 344 345 346 347 349 350 350
307 308 308 308 309 310 310 313 315 317 318 319 320 319 319 319 319 320 321 320 320 320 321 321 320 322 329 326 321 321 322 323 323 324 325 324 323 323 323 319 319 320 320 319 318 318 318 322 329 331 330 330 331 335 338 343 345 350 351 349 347 344 347 356 354 354 355 355 359 357 348 350 353 353 355 353 351 351 348 346 344 344 344 345 347 348 350 351
307 308 308 308 309 309 310 313 316 317 318 320 319 319 320 320 320 319 320 320 320 320 320 322 320 322 329 326 321 321 321 323 324 324 325 323 323 324 323 319 317 317 317 317 317 318 319 325 331 332 331 330 330 331 335 342 344 347 343 338 343 343 346 356 354 353 355 354 358 354 347 352 354 352 355 353 351 353 349 346 344 344 344 344 345 347 350 351
308 308 308 308 309 309 310 313 316 318 318 320 319 320 320 320 320 319 320 320 320 320 320 325 326 325 328 325 324 322 322 325 323 323 324 323 324 323 322 319 316 316 315 316 317 319 322 328 333 332 330 330 329 330 334 337 337 340 338 334 340 342 343 351 353 355 353 353 358 354 349 353 353 351 353 352 352 353 350 348 346 344 344 344 344 346 349 350
308 308 308 308 309 309 310 313 316 318 319 319 320 320 320 320 320 320 320 320 320 320 320 325 328 327 326 324 324 324 323 323 321 323 323 323 323 322 321 318 316 316 316 316 318 321 325 329 331 329 328 328 329 332 331 328 328 333 336 335 339 341 339 344 351 354 352 352 355 353 352 353 351 352 354 353 352 354 351 349 348 345 344 344 343 345 348 350
308 308 308 308 309 309 310 313 316 318 319 319 320 321 320 320 319 320 321 320 320 321 321 322 325 325 323 323 324 323 322 321 321 322 322 322 322 321 322 320 318 316 317 318 319 322 326 329 330 328 327 328 330 333 328 327 329 330 332 332 334 339 339 342 348 351 351 350 352 352 353 352 352 354 356 355 354 354 353 351 349 346 345 345 343 343 347 351
309 308 308 309 309 309 310 313 316 318 319 320 321 322 323 323 321 321 321 322 325 326 324 324 325 323 321 323 323 322 322 321 321 321 322 322 321 322 322 320 319 317 319 320 320 323 325 327 328 325 327 328 329 331 330 332 335 334 334 333 333 335 337 343 348 350 353 352 353 353 352 353 353 354 356 355 353 354 354 352 350 347 345 344 343 342 346 349
312 309 308 308 309 310 311 313 316 318 319 320 322 325 330 330 327 325 325 326 328 326 323 324 324 323 323 323 323 323 322 321 321 321 322 322 321 322 321 320 320 319 321 321 321 323 325 325 324 323 325 328 330 331 332 334 335 335 334 334 334 333 336 345 350 350 354 354 352 352 351 352 352 353 355 355 352 352 354 352 349 347 345 345 343 342 345 348
316 311 308 308 309 310 311 313 316 318 319 320 322 326 328 326 325 325 325 327 325 322 323 323 322 323 323 322 322 323 323 322 322 321 321 322 322 322 321 320 321 320 322 325 324 325 325 323 323 325 326 328 331 332 333 332 331 333 331 331 331 332 337 344 348 349 353 352 349 351 352 351 352 353 355 356 353 352 354 353 350 349 346 345 343 342 344 347
318 314 309 308 309 310 311 313 316 318 319 320 323 325 323 321 322 322 323 325 323 321 323 322 322 323 322 322 322 322 324 323 322 321 321 322 323 322 322 320 320 321 322 325 327 325 322 321 324 327 328 328 330 329 330 331 330 330 329 328 327 331 339 342 348 350 350 348 346 351 351 351 353 352 354 356 354 353 354 352 350 349 348 344 343 343 343 346
317 317 312 308 309 310 310 313 315 318 318 320 324 324 321 321 321 321 322 325 324 322 323 323 323 323 323 323 322 322 324 323 322 322 320 321 323 322 322 321 321 322 322 323 325 322 319 321 325 328 328 327 327 327 327 327 327 327 327 325 325 333 335 333 343 349 346 347 348 351 351 351 354 353 354 356 355 356 354 351 349 348 350 346 342 342 343 345
314 318 315 309 309 310 310 312 315 318 318 320 322 322 320 320 320 322 324 326 325 323 323 323 322 322 322 322 322 323 324 322 322 323 321 322 323 321 322 323 321 321 321 321 322 321 321 324 326 326 327 326 324 325 326 325 325 325 327 325 325 333 332 331 340 344 344 349 352 352 348 348 352 353 355 355 354 356 354 352 352 350 349 347 343 342 342 345
312 315 317 311 309 311 310 311 315 319 320 320 321 321 320 320 320 321 324 325 324 323 322 321 322 321 321 321 322 323 323 322 322 322 322 323 323 322 322 322 321 321 321 321 321 321 322 325 325 324 324 324 323 324 326 325 322 323 327 327 327 332 333 335 339 339 337 340 349 350 340 342 351 353 354 354 352 354 354 354 353 352 349 348 346 341 342 344
313 313 317 314 310 310 311 314 319 318 319 320 321 321 320 320 320 321 325 325 322 322 322 321 321 321 320 321 323 323 323 323 323 322 322 323 323 323 323 322 323 322 322 321 321 320 322 324 323 323 322 322 322 322 324 326 321 320 325 328 328 331 333 335 337 335 331 333 345 349 338 337 346 351 355 354 352 353 354 353 352 354 351 348 349 342 342 343
316 313 315 315 311 310 312 319 321 318 318 321 321 320 320 319 320 322 326 323 318 320 322 321 321 320 320 321 322 321 321 322 324 323 322 323 323 324 324 323 322 322 323 322 319 319 321 322 322 322 321 321 321 321 323 324 320 320 327 331 330 331 333 334 336 334 332 337 347 352 345 338 338 345 355 355 352 353 354 353 352 354 352 350 349 345 342 343
319 315 313 315 314 310 311 315 318 318 320 321 320 319 319 318 321 326 326 320 318 320 322 321 320 320 320 321 321 321 322 322 323 323 323 323 323 324 324 323 322 322 323 322 318 320 323 322 321 321 320 320 321 321 323 323 321 321 326 329 329 332 333 334 335 333 333 337 338 343 347 338 335 346 355 355 353 354 355 353 352 353 352 351 350 347 343 343
320 318 313 314 315 311 310 311 313 318 320 320 319 318 318 320 324 328 324 320 321 320 321 321 320 320 321 321 321 322 322 322 323 323 324 323 323 324 324 324 323 322 323 323 321 323 324 323 323 322 321 320 321 323 323 322 322 322 324 325 328 332 332 334 334 331 330 332 330 334 340 334 334 346 353 353 352 352 355 354 353 354 353 352 351 348 344 343
318 319 316 314 314 313 310 311 312 313 316 316 316 318 319 322 325 323 319 320 321 320 321 320 321 321 322 321 321 322 322 323 323 323 323 324 323 323 324 324 323 322 323 323 322 324 324 323 324 323 322 323 324 324 324 323 323 323 323 325 327 329 331 333 333 331 328 327 327 333 342 338 333 341 349 352 352 350 353 354 354 354 353 353 352 350 346 343
315 319 318 314 314 313 311 316 317 312 312 314 314 318 321 325 325 320 319 322 320 320 321 321 321 321 322 322 321 322 322 323 324 323 323 324 324 324 324 324 323 323 323 322 322 324 324 323 324 323 323 323 323 323 324 325 323 322 323 325 325 324 327 328 328 329 327 325 331 339 346 341 332 337 347 350 349 348 351 354 353 352 352 352 352 350 348 344
313 317 319 315 315 313 312 321 323 314 311 313 315 320 324 324 322 318 321 321 318 319 321 321 322 321 321 321 321 322 322 323 324 323 324 324 324 325 324 323 323 320 318 320 321 322 323 324 324 324 324 323 323 322 323 325 324 324 323 323 321 320 324 325 324 326 325 326 337 344 344 337 333 337 346 348 346 348 352 353 351 350 351 352 352 351 349 345
313 316 319 316 314 313 312 317 319 312 311 314 318 323 324 321 321 321 320 319 318 320 322 321 322 322 321 321 322 322 321 322 323 323 323 323 323 324 323 323 323 321 319 319 318 318 320 324 325 325 325 325 323 321 321 324 325 325 323 321 320 320 322 324 323 323 323 325 335 344 342 333 331 336 341 344 347 348 352 353 350 348 350 351 352 352 349 345
314 315 318 316 314 313 311 312 313 311 312 317 320 324 323 319 322 323 321 320 320 321 321 321 321 321 321 321 321 322 321 321 322 323 323 323 323 323 324 323 323 323 323 320 318 317 317 320 325 325 325 326 326 323 324 325 326 326 326 325 321 320 321 321 321 322 323 325 332 341 339 331 331 338 340 341 345 348 352 353 351 349 350 351 351 350 347 346
314 316 318 315 313 313 312 311 312 311 314 320 323 322 320 319 321 322 322 322 322 321 321 321 321 321 320 321 322 322 321 321 323 323 322 323 323 323 324 324 323 324 323 319 319 319 316 318 325 326 326 326 325 326 327 326 327 329 328 324 321 323 323 320 320 321 323 327 333 335 334 333 337 343 342 341 344 347 351 353 350 349 350 352 352 351 349 346
317 318 318 315 313 313 312 311 311 312 317 323 321 319 320 322 323 324 323 323 322 321 321 320 320 319 319 321 322 322 321 321 322 322 322 323 323 323 323 323 324 323 322 321 321 320 316 318 325 326 326 326 326 328 329 328 327 328 329 325 323 327 326 320 321 323 325 328 331 330 328 333 340 343 344 342 343 345 350 352 349 347 348 351 351 351 350 348
318 320 321 322 318 314 313 311 311 315 319 322 320 320 323 324 326 325 324 324 322 322 321 318 319 319 318 319 321 322 321 320 321 320 320 322 321 322 323 323 324 323 324 323 321 322 320 318 325 326 325 328 329 327 328 333 330 326 329 330 328 332 330 324 325 328 328 328 327 326 327 330 336 341 346 346 347 346 346 349 349 347 346 349 350 350 349 349
317 318 321 325 321 315 313 312 314 318 321 321 321 322 324 324 327 326 325 324 322 322 321 318 319 320 319 318 320 323 322 319 321 320 320 321 320 322 324 323 324 323 324 324 321 324 322 317 322 326 325 327 330 326 326 333 332 328 332 334 329 331 331 328 327 326 326 325 326 327 327 327 331 337 343 345 347 347 345 347 347 347 346 346 348 350 349 349
319 320 322 323 319 314 313 314 317 320 320 319 321 322 323 323 326 327 325 325 323 322 320 319 320 321 320 320 320 323 322 319 321 321 319 320 320 322 324 323 323 324 324 324 322 324 324 319 319 324 326 325 327 326 322 327 333 331 332 332 329 331 331 331 330 328 324 323 326 328 326 327 335 339 342 345 347 346 346 348 349 348 348 346 347 349 349 349
323 325 324 324 318 313 314 317 319 321 320 320 321 321 322 321 324 326 325 324 323 322 321 321 321 320 320 322 321 322 322 320 321 321 319 321 320 321 323 322 323 324 324 324 323 323 324 321 317 322 326 323 322 325 324 327 335 334 328 327 328 328 329 332 333 332 328 323 325 328 325 329 340 344 344 348 348 346 345 346 350 351 350 348 347 348 349 349
323 324 324 323 317 313 317 319 320 321 320 321 321 321 322 321 322 325 325 324 323 322 322 322 322 321 321 321 321 321 322 321 322 321 320 321 320 320 323 323 323 323 323 323 323 323 323 322 319 319 321 320 322 327 326 328 334 333 327 325 327 329 329 332 331 328 325 323 323 325 325 331 343 346 345 347 346 347 347 345 347 350 349 350 349 348 349 350
323 323 322 321 316 315 319 319 321 322 321 321 322 321 322 322 322 323 324 323 322 322 323 322 321 321 321 321 321 322 322 321 322 321 321 321 321 321 322 323 323 323 322 321 322 324 324 323 320 318 320 321 324 328 328 328 330 329 328 330 330 330 330 330 330 326 322 323 324 323 323 332 345 347 345 347 346 348 349 347 346 348 350 353 350 345 347 351
327 323 322 319 316 318 321 321 321 323 322 323 323 322 322 322 321 322 323 323 322 322 322 321 321 321 321 321 322 322 321 321 322 322 322 321 322 323 322 322 322 322 322 321 321 323 323 323 320 319 322 324 324 326 328 329 329 327 330 332 332 332 330 330 333 332 325 322 324 323 323 333 345 348 347 349 349 350 349 348 348 348 350 354 353 347 345 349
326 322 322 320 317 319 321 322 322 322 323 324 323 322 322 321 320 321 322 323 323 322 322 321 321 321 321 321 321 322 321 320 321 322 322 321 322 322 322 322 322 322 322 323 324 323 321 322 322 319 320 320 321 324 325 327 329 328 330 332 332 335 337 333 334 335 327 322 324 323 324 334 344 347 346 348 350 352 350 349 350 351 352 352 353 351 346 347
325 324 323 321 318 319 320 322 323 323 325 325 323 322 322 321 321 322 323 323 323 323 322 322 322 321 321 321 321 321 322 320 321 322 322 322 322 322 323 322 321 322 324 324 325 323 321 323 323 320 318 318 318 320 322 326 329 329 331 334 333 336 337 334 331 329 325 325 326 324 327 336 344 345 344 345 349 352 352 351 351 352 352 352 353 353 350 349
326 325 323 322 320 320 319 321 323 324 326 326 324 324 322 321 321 322 322 323 324 325 323 323 323 321 320 321 321 321 322 321 320 322 323 322 322 323 322 322 321 323 325 324 323 322 323 324 324 322 321 320 320 321 324 327 326 324 327 331 332 332 333 334 331 327 326 326 327 331 335 335 337 344 345 345 349 350 351 351 350 351 351 351 352 353 353 352
327 325 325 325 323 321 320 321 322 323 326 326 326 326 323 321 322 322 322 322 324 324 324 323 323 321 320 320 320 320 322 322 321 322 322 322 322 323 323 322 322 323 324 323 322 322 322 322 323 325 324 323 323 324 326 327 326 324 325 327 328 331 331 331 331 331 332 328 326 336 342 333 334 344 345 345 349 349 348 349 350 351 350 350 352 352 353 353
327 325 326 326 325 324 323 322 323 323 324 324 325 326 325 322 322 323 323 323 323 323 323 323 322 321 321 321 321 320 322 323 322 322 322 322 322 323 323 322 322 323 324 323 323 324 322 320 321 323 323 323 324 324 324 328 330 328 327 327 329 331 330 329 329 332 335 330 328 337 343 337 338 343 344 347 350 345 347 351 351 351 350 350 351 351 352 353
324 324 326 325 325 326 325 325 327 326 325 326 326 325 325 324 323 323 324 323 323 323 322 322 322 321 321 321 321 322 323 322 321 323 324 323 322 323 323 323 323 324 324 322 324 325 322 320 322 322 321 322 322 323 323 326 329 328 327 328 329 329 330 329 329 331 334 334 335 338 340 340 341 343 345 350 349 344 349 352 351 351 351 351 352 351 352 353
322 323 325 325 325 325 325 326 327 326 326 326 327 326 325 325 324 324 325 324 324 324 322 322 322 321 322 322 321 322 323 323 323 324 324 323 323 323 323 323 323 323 324 322 323 325 322 320 323 324 321 320 321 323 323 323 325 325 325 327 329 329 329 329 329 330 331 333 336 336 336 339 344 346 349 352 348 345 349 351 350 351 352 351 352 352 352 353
322 321 321 322 324 325 325 326 325 325 325 325 326 326 325 325 325 324 324 325 325 325 324 322 323 323 322 322 321 321 322 323 323 324 324 323 323 324 323 323 323 323 323 323 323 324 323 322 323 323 318 318 320 321 322 323 323 322 322 325 327 327 327 328 330 331 331 333 335 333 332 336 342 344 348 351 348 344 348 351 350 351 351 351 352 352 350 351
323 322 322 322 324 325 326 326 324 324 325 325 325 327 326 325 326 325 325 327 326 325 325 324 325 324 323 322 322 322 322 323 323 323 323 323 323 324 324 323 323 322 323 324 323 324 324 322 322 321 318 317 321 322 323 324 321 319 322 325 327 327 327 329 330 333 335 336 336 334 334 338 343 343 345 349 346 345 348 350 349 350 351 351 350 350 348 347
Wind_Speed
6 6 6 6 6 7 7 8 8 8 9 9 9 9 10 10 10 11 12 13 13 13 10 8 7 6 5 5 3 4 5 5 8 7 1 4 8 9 6 4 5 5 7 8 7 8 7 7 8 7 8 9 7 5 4 3 5 5 3 2 1 0 2 3 1 3 5 8 13 13 11 10 10 10 10 10 10 10 9 9 10 10 12 17 21 23 22 20
6 6 6 6 6 6 7 7 7 8 8 8 8 9 10 10 11 12 13 13 14 13 9 7 6 5 4 3 7 10 10 10 9 4 4 7 6 6 5 4 4 5 8 8 8 8 7 6 6 7 9 8 4 4 4 2 5 5 2 2 3 1 3 4 1 6 7 6 11 12 10 11 11 11 10 8 9 9 9 11 13 15 18 20 22 23 21 19
6 6 6 6 6 6 6 6 7 7 7 8 8 8 9 9 11 12 13 13 14 12 9 7 6 5 4 8 11 12 12 9 6 2 3 4 5 5 5 6 5 7 9 7 8 9 8 7 6 8 9 7 4 6 5 1 4 5 3 1 1 1 2 3 1 9 10 8 10 11 10 11 11 11 8 7 9 10 9 12 14 16 19 21 22 22 20 19
5 5 6 6 6 6 6 6 6 6 6 7 7 8 8 9 11 11 12 13 12 11 9 7 6 5 5 11 11 9 5 1 4 4 3 3 4 6 6 7 8 10 8 4 8 9 10 9 8 9 9 7 6 8 5 2 3 4 4 3 4 0 1 3 2 4 10 11 10 11 10 11 11 9 8 8 8 7 9 12 13 15 20 22 22 21 19 18
6 6 6 6 6 6 6 6 6 6 5 6 6 7 8 9 10 11 11 11 11 10 9 7 6 6 7 9 7 4 4 3 6 5 4 2 2 6 7 8 10 10 5 5 7 8 9 9 9 9 9 7 7 6 1 5 4 3 3 5 5 2 2 2 2 2 5 10 11 10 10 10 11 9 8 8 6 6 10 13 14 16 20 22 21 20 18 17
6 6 6 6 6 6 6 6 5 5 5 5 6 7 8 10 10 10 10 10 11 10 8 7 5 5 6 6 4 4 6 2 7 3 3 3 2 5 7 8 10 9 5 6 6 7 9 10 10 10 8 6 5 3 4 5 5 4 2 6 5 5 3 2 3 5 6 8 12 9 10 12 11 10 8 8 6 7 10 12 15 17 20 21 20 19 18 17
7 6 6 6 6 6 6 5 5 4 5 5 6 8 8 10 10 10 10 10 11 10 7 6 4 5 5 5 3 6 4 6 6 2 3 3 3 5 6 7 8 7 4 6 6 7 9 10 11 10 8 6 3 1 4 3 1 3 4 7 7 7 3 2 3 7 8 6 11 9 10 11 9 10 8 8 8 10 11 12 16 19 19 20 19 18 17 16
8 7 6 5 6 6 5 4 4 4 5 6 6 8 9 10 10 10 10 10 12 10 5 4 3 3 3 5 4 6 3 9 5 2 4 3 4 5 5 7 6 5 4 7 7 6 8 10 11 9 8 4 2 0 3 4 2 2 4 5 6 6 4 3 1 6 5 5 7 9 9 9 9 9 7 9 11 12 13 14 18 19 19 19 18 17 16 15
9 8 7 6 6 5 5 4 3 4 5 6 7 8 9 10 10 10 11 11 12 10 6 4 3 3 3 4 10 7 6 8 3 2 4 4 4 4 6 4 4 5 7 7 6 7 7 9 11 8 8 5 4 2 3 4 1 6 6 4 6 7 8 9 5 5 5 7 10 11 10 11 12 9 6 8 11 13 14 15 19 20 18 18 18 17 16 15
10 9 8 7 6 5 4 3 3 4 5 6 7 7 9 10 10 10 11 11 12 11 7 6 4 2 3 6 12 4 7 5 2 2 2 4 3 3 4 4 5 6 8 7 7 9 9 9 7 6 8 7 5 3 3 4 2 9 8 7 8 8 10 9 4 4 7 10 10 8 8 10 9 6 5 6 10 13 14 17 19 19 18 17 17 17 16 15
11 10 9 8 7 6 4 3 3 4 5 6 7 8 9 9 9 10 11 10 12 11 7 7 4 2 1 5 9 3 7 2 2 2 2 2 2 2 3 5 5 6 7 7 8 8 10 8 8 7 6 4 4 4 0 3 1 9 9 7 8 7 8 7 5 4 6 6 3 4 6 8 7 4 6 8 10 12 14 17 18 18 17 16 17 16 15 15
11 11 10 9 7 6 4 3 3 4 5 6 7 8 8 9 9 9 10 10 11 10 6 6 3 2 2 3 5 7 4 2 2 3 4 3 3 3 4 5 5 7 6 7 8 7 9 7 8 11 7 6 6 3 1 2 4 6 8 4 5 5 6 6 5 2 3 2 2 4 7 8 7 6 8 9 10 12 14 17 18 17 17 16 16 16 14 14
11 11 11 10 8 6 4 2 2 4 5 7 8 9 9 9 8 7 8 8 9 9 5 4 3 1 5 2 7 5 1 1 2 5 5 4 3 2 4 5 6 7 6 7 7 6 9 7 8 10 9 9 6 4 1 4 6 3 5 3 2 3 4 5 4 2 2 2 2 2 5 6 9 8 10 12 12 13 14 16 18 17 17 17 16 16 15 14
11 11 11 10 8 6 4 2 2 4 6 8 9 10 10 9 8 6 6 6 7 7 3 2 1 2 4 5 7 3 4 4 4 6 5 4 3 2 2 4 5 7 7 6 5 5 8 7 9 11 10 10 7 5 3 5 5 2 4 3 1 0 3 5 4 3 3 2 2 3 3 2 8 10 12 13 13 14 14 15 18 18 17 17 16 15 15 15
11 11 11 10 9 7 5 2 2 4 7 9 10 12 11 8 6 4 5 5 6 5 1 1 1 5 5 6 6 3 7 6 4 5 5 5 4 3 1 3 4 5 6 5 5 5 7 8 10 12 9 8 8 8 5 3 4 4 3 2 0 1 3 6 5 6 5 2 3 6 2 1 3 8 13 14 13 15 14 14 17 18 18 17 17 15 15 15
11 11 11 11 9 7 5 3 2 5 7 10 12 12 10 6 4 2 4 6 5 1 2 2 4 8 7 5 4 3 5 5 4 4 4 4 4 1 2 2 3 5 5 5 5 5 7 9 10 11 9 5 8 8 4 4 5 5 4 1 2 3 3 5 3 5 6 3 6 9 3 2 2 5 11 14 15 14 12 14 16 17 18 17 16 16 15 15
11 11 11 11 9 7 5 3 3 5 8 10 12 11 7 3 1 0 5 5 1 3 4 1 2 7 4 5 4 4 4 3 3 4 3 3 3 1 3 3 4 5 5 5 6 6 8 10 10 8 8 8 8 5 3 6 4 4 3 2 1 1 1 3 1 2 5 4 6 9 5 3 3 6 10 13 15 14 11 13 17 16 17 17 16 16 16 15
11 11 11 11 9 7 5 3 3 5 8 11 11 8 5 2 2 1 5 3 2 5 5 4 4 5 1 5 2 2 3 2 3 4 4 2 2 4 4 3 4 6 7 7 8 9 10 10 10 7 8 8 6 4 4 3 2 0 1 2 0 1 0 2 2 5 7 5 6 9 7 6 7 8 10 10 11 14 13 11 14 17 17 17 16 16 17 16
11 11 11 11 9 7 5 3 3 5 8 10 9 7 4 1 3 1 5 2 4 3 1 3 3 2 4 4 1 3 2 2 4 5 4 3 3 5 4 3 6 8 9 8 8 11 10 9 9 6 7 7 7 9 6 1 1 3 3 3 2 1 1 1 2 7 9 8 8 9 8 9 10 9 9 9 8 13 12 6 10 16 17 17 17 16 17 16
11 10 10 11 10 7 4 4 3 4 7 8 10 8 5 3 4 3 2 4 6 4 4 3 3 4 4 4 2 3 4 4 4 3 4 5 5 5 5 5 8 9 9 7 8 10 9 8 7 7 9 8 9 9 5 4 3 6 8 5 4 2 1 2 1 3 4 4 3 4 6 8 9 9 9 11 9 12 10 7 13 16 17 16 17 17 17 16
11 10 10 10 10 7 4 4 3 3 6 7 10 8 6 8 4 2 4 5 4 2 2 3 4 3 4 4 2 2 5 5 4 3 4 5 7 7 7 7 8 7 7 5 6 6 6 7 8 9 8 4 2 2 4 8 7 8 9 7 5 2 3 2 2 0 2 3 3 3 4 7 9 9 9 11 11 12 12 10 14 15 17 18 16 17 17 16
11 10 9 9 10 7 5 5 4 4 4 5 8 7 6 10 7 6 8 5 4 2 2 1 1 1 4 1 2 3 7 6 6 5 4 6 8 7 4 6 10 5 5 4 4 5 5 8 11 7 1 2 3 3 6 9 10 9 8 7 6 2 4 4 2 1 2 2 2 5 3 5 7 8 9 11 12 12 8 7 11 14 12 18 17 17 18 17
11 10 9 9 10 8 5 5 5 5 3 3 7 6 5 7 8 7 8 8 3 5 4 2 3 2 3 1 2 5 7 2 5 7 5 8 8 5 4 6 7 2 4 7 7 5 5 6 9 3 4 3 7 7 9 9 9 9 7 8 5 7 4 2 2 3 4 3 4 6 4 3 5 6 8 10 11 9 3 7 15 16 12 13 18 18 18 19
11 10 9 8 9 8 6 6 7 6 4 5 6 4 5 7 9 8 8 10 3 6 4 1 1 1 2 2 1 6 2 3 2 7 7 9 6 3 5 4 4 3 5 9 10 10 5 3 3 3 4 6 10 9 10 9 7 8 9 9 6 4 4 0 2 3 5 4 3 4 4 3 6 7 7 9 9 6 4 7 15 15 13 14 17 19 19 19
12 11 9 8 8 8 5 5 6 5 5 6 4 3 6 7 9 9 7 9 4 7 6 5 4 1 2 1 3 5 0 5 4 7 7 7 4 2 2 2 5 5 3 5 8 10 8 2 4 2 4 7 10 9 9 8 7 9 9 10 9 8 7 1 2 4 5 4 1 2 4 2 6 8 8 9 9 7 7 9 12 13 11 15 16 20 20 20
12 11 9 8 8 5 2 1 4 5 6 6 3 3 6 7 10 9 5 7 4 7 6 6 5 3 3 4 3 3 4 6 7 6 5 4 5 5 3 4 4 3 1 3 7 6 6 2 5 7 8 9 10 9 9 8 8 7 4 7 8 5 4 3 4 6 6 3 2 2 5 3 3 7 8 10 11 10 9 11 13 14 13 14 18 20 21 21
13 12 9 8 7 4 2 3 7 7 5 4 3 5 6 8 11 6 4 7 4 4 4 6 3 2 2 3 4 4 2 6 7 6 4 2 4 5 4 3 3 0 2 6 5 4 4 2 4 8 9 9 9 7 9 9 9 6 1 4 6 2 4 6 5 7 6 3 1 4 8 6 3 4 8 11 11 11 10 11 14 15 16 16 18 19 21 22
13 12 9 7 7 6 6 8 9 6 6 6 6 7 6 9 10 2 6 5 4 3 3 6 2 1 3 3 5 5 2 4 4 7 6 3 4 5 5 2 3 1 2 7 3 5 5 6 5 9 9 8 8 7 8 9 10 9 3 4 6 6 8 6 5 9 7 4 5 7 9 8 2 2 7 11 10 11 13 14 15 18 19 19 19 21 21 22
12 13 10 7 7 7 7 9 11 9 8 10 10 8 7 9 6 4 7 4 3 4 3 5 4 5 7 6 5 4 1 2 1 5 7 5 5 7 7 2 4 5 3 8 5 3 2 4 3 6 8 6 7 7 7 6 7 10 9 6 6 7 7 6 7 9 7 7 9 6 7 6 1 5 7 9 10 11 12 12 14 19 21 21 22 24 22 22
12 13 11 8 7 7 7 7 9 12 11 11 11 7 8 8 5 7 7 2 2 5 5 4 5 6 8 9 7 5 4 2 2 5 7 6 6 7 7 3 5 7 5 8 8 3 2 3 3 6 8 7 5 4 3 5 9 11 10 7 8 9 7 7 7 7 7 9 9 5 7 6 4 4 6 7 9 12 12 10 13 18 21 21 23 24 22 22
11 13 12 9 7 6 5 3 6 11 11 11 8 6 8 6 6 8 4 0 2 5 6 5 5 5 7 8 4 5 6 4 4 6 7 6 8 9 8 8 6 6 7 8 9 7 7 8 5 6 8 8 6 6 5 7 11 11 8 7 8 8 7 6 7 6 8 8 5 5 10 10 8 1 4 8 10 12 13 12 14 18 21 24 24 24 23 23
11 12 12 10 8 7 7 6 8 9 9 9 7 7 8 6 7 8 2 2 3 4 4 3 4 5 5 6 3 3 3 4 4 5 5 3 6 5 3 4 3 4 7 4 5 7 8 8 6 7 7 7 7 7 7 7 7 7 7 7 7 6 5 6 6 7 8 6 1 3 5 8 6 2 6 10 10 11 13 15 16 19 23 25 25 24 24 24
11 12 12 11 9 9 11 11 10 9 9 8 7 8 8 6 6 5 2 3 3 3 2 2 2 3 4 6 4 3 2 2 3 4 3 3 4 3 1 4 6 5 4 2 2 5 5 7 6 5 6 7 8 8 5 4 5 6 7 7 6 6 6 7 7 7 8 7 5 1 7 7 4 3 5 8 9 11 15 19 20 21 23 25 24 25 25 25
11 12 12 10 9 10 11 12 11 10 10 8 8 8 8 8 5 2 3 3 4 3 3 3 3 5 6 5 3 4 5 3 2 3 3 5 6 4 5 3 3 7 5 4 5 4 2 4 6 3 3 6 8 9 8 6 4 6 7 7 7 7 7 7 6 6 7 5 3 3 3 5 2 2 3 4 8 12 15 19 21 19 20 22 22 25 28 27
10 11 11 9 8 9 10 11 11 12 11 9 9 8 7 8 6 4 5 2 4 4 5 4 5 7 8 4 2 2 7 2 3 5 5 4 3 1 1 4 2 5 5 4 3 3 6 2 6 2 1 2 7 8 6 8 5 5 7 8 8 7 8 8 8 7 5 5 2 1 4 4 2 2 1 1 6 12 14 17 21 18 16 18 18 20 24 26
8 9 9 7 7 9 9 10 12 13 12 10 9 8 7 7 5 2 1 2 2 3 4 6 7 8 7 6 5 5 5 2 2 4 5 4 2 2 3 3 2 4 6 5 5 2 5 1 7 5 5 4 5 6 4 7 5 2 6 7 4 7 10 9 8 7 5 5 5 4 7 3 2 2 2 2 3 9 12 14 18 18 15 16 18 22 24 24
5 7 8 5 7 9 9 11 13 15 12 10 8 7 7 8 6 2 2 2 1 2 5 5 5 5 4 4 6 8 7 5 4 4 4 4 3 1 0 1 0 5 8 6 6 3 3 4 3 4 5 3 2 9 7 5 4 2 3 5 5 7 8 7 5 5 6 7 5 5 9 4 4 2 4 4 3 4 8 12 16 17 15 14 16 25 29 26
5 6 7 7 8 9 10 13 14 14 12 10 9 9 9 6 3 2 1 2 2 3 7 6 2 2 4 4 4 8 7 6 5 4 4 3 4 1 2 2 4 2 7 7 7 3 3 6 4 4 2 2 2 7 7 3 5 6 2 2 4 4 4 5 6 7 8 7 4 6 11 7 2 2 1 2 2 4 5 8 13 16 17 16 15 20 26 26
5 6 8 11 10 9 12 14 15 14 11 8 8 8 9 8 4 3 3 4 5 5 6 8 4 3 5 5 2 4 6 4 1 3 4 2 3 1 2 2 2 2 3 6 8 5 4 6 3 3 1 1 3 5 5 2 5 8 4 4 6 4 2 3 3 5 7 6 4 6 8 4 3 2 2 2 1 2 5 8 10 14 18 19 18 18 21 23
7 8 7 11 11 10 14 15 13 12 9 8 9 7 8 10 8 7 6 6 7 6 5 6 4 4 5 4 4 2 5 4 3 3 1 3 3 4 4 1 2 1 0 6 8 5 4 5 5 5 3 3 3 2 3 2 3 7 6 5 6 5 5 4 2 4 7 6 3 5 6 1 3 2 2 4 5 2 2 6 9 11 17 19 19 17 18 23
10 10 4 10 12 13 16 13 11 11 8 8 10 10 8 7 7 8 9 9 10 7 7 7 5 5 3 3 5 4 3 4 4 4 2 3 3 3 3 3 2 3 2 7 7 4 4 4 6 6 5 4 2 1 3 3 3 5 5 5 6 4 2 2 4 7 8 6 5 5 6 0 3 2 2 4 5 7 5 3 8 12 13 17 18 18 16 21
10 7 3 9 14 16 16 11 9 11 8 8 9 7 4 3 6 7 9 11 11 9 8 7 7 6 3 4 5 3 3 5 4 4 3 2 1 2 5 4 2 5 5 8 6 3 3 4 7 7 7 8 1 2 3 3 5 8 6 4 5 3 2 2 3 7 7 7 6 6 7 2 3 0 2 4 1 7 6 1 5 13 11 14 16 21 18 15
9 2 4 6 15 18 14 9 8 9 9 9 9 6 3 5 9 10 8 10 10 9 9 7 7 8 5 6 5 3 4 4 3 3 2 2 1 5 6 2 3 6 7 8 4 3 2 4 6 7 8 9 3 1 3 2 3 8 6 3 5 5 5 3 4 8 9 7 6 6 6 1 3 2 3 2 1 1 6 5 3 9 5 11 12 19 20 15
12 7 0 7 15 17 12 8 8 8 8 10 10 8 8 8 10 11 9 9 10 9 8 7 8 9 6 6 5 4 4 3 4 4 4 4 2 8 5 1 4 8 6 5 7 5 2 3 3 5 7 7 5 3 5 4 5 6 1 4 5 8 12 9 7 8 9 7 6 6 4 0 2 4 5 5 4 3 5 6 6 8 3 6 8 13 19 18
13 10 5 7 13 16 14 11 9 7 7 11 11 10 11 9 11 12 10 10 11 10 8 8 9 9 6 6 6 6 4 2 4 4 3 4 3 7 4 3 5 8 3 8 11 9 6 4 4 5 7 6 5 4 3 2 5 5 3 2 7 14 13 9 6 6 5 5 6 5 2 2 2 3 8 6 6 2 5 6 5 5 3 2 5 9 14 18
10 7 6 9 13 17 17 16 14 10 7 7 8 9 11 9 11 13 12 10 10 10 10 8 8 8 8 8 8 8 7 6 5 2 2 5 4 6 7 5 7 5 6 5 8 8 6 6 6 7 7 7 8 7 5 3 7 8 3 4 11 12 6 6 5 5 4 5 4 2 2 4 3 4 7 6 6 3 5 5 4 2 1 1 4 6 10 15
9 6 3 3 8 12 15 16 16 11 9 8 4 6 11 11 10 12 13 11 9 10 11 10 8 8 9 10 9 8 9 8 7 5 3 6 8 4 9 5 9 4 4 4 9 6 6 7 8 10 9 10 11 8 6 6 7 10 9 8 10 8 5 5 4 7 10 8 3 1 3 6 1 4 3 6 4 5 5 4 2 2 3 3 5 6 8 12
8 7 6 5 3 7 8 10 12 12 12 11 7 5 8 11 10 9 11 11 11 9 9 9 11 12 11 11 9 8 9 8 7 6 5 5 8 3 7 8 9 9 7 9 9 5 6 8 9 10 8 9 11 7 6 5 4 6 10 10 9 8 8 8 5 5 10 10 5 3 5 7 4 2 3 6 1 4 0 1 1 2 3 4 4 6 6 7
10 9 7 6 7 9 8 6 7 9 11 8 6 8 8 10 12 10 9 10 10 10 10 10 11 13 14 12 9 8 8 7 6 7 6 6 7 5 4 6 9 13 9 8 7 5 4 6 8 10 9 9 11 8 6 6 5 5 9 11 11 10 10 10 8 8 10 9 8 5 4 8 7 2 6 4 5 5 4 2 3 2 3 4 3 4 3 3
10 9 9 9 10 12 12 10 7 7 8 6 6 9 10 10 12 10 9 10 8 10 12 12 11 12 14 14 12 10 9 8 7 7 6 7 6 5 5 6 5 9 8 5 4 4 3 4 5 7 8 9 11 9 7 8 7 7 10 12 12 12 12 12 11 11 9 7 8 8 6 7 6 3 4 5 7 5 4 2 3 3 3 3 3 4 3 1
9 10 10 10 9 9 9 9 8 7 7 7 8 8 10 12 13 12 11 11 11 11 11 12 13 13 11 12 13 12 11 10 9 9 8 8 7 6 6 4 5 5 5 5 3 3 4 5 5 6 7 7 10 10 7 7 9 10 12 12 12 13 11 10 10 6 4 6 8 9 8 5 2 6 7 4 5 4 5 3 2 2 4 3 4 6 7 4
9 9 8 8 8 7 8 8 8 7 6 8 9 9 9 11 12 12 10 8 11 15 13 9 8 6 7 10 11 12 14 13 13 14 13 10 8 9 7 5 4 6 7 6 4 4 5 6 6 6 5 7 10 6 4 6 9 9 7 4 6 10 9 10 9 4 6 7 7 6 6 5 3 5 8 4 3 2 2 4 3 2 4 5 5 7 12 11
Wind_Direction
18 7 0 353 348 349 349 350 352 354 355 358 3 8 10 11 14 12 11 8 4 2 356 352 344 338 346 348 21 86 103 119 118 114 170 259 230 225 239 231 222 209 194 186 190 212 226 233 238 240 242 246 253 269 272 302 333 312 313 2 9 76 57 59 99 105 103 137 141 141 137 127 122 119 121 124 120 116 117 115 111 106 107 118 128 136 141 142
19 13 9 1 356 355 351 351 350 351 353 356 2 5 7 10 11 8 8 6 6 5 3 3 355 356 9 59 100 103 102 94 95 116 256 254 226 216 219 198 191 183 174 183 203 217 229 240 240 236 244 252 247 268 279 336 330 317 36 16 1 32 70 68 157 95 92 153 140 138 137 127 127 127 136 131 123 131 130 121 117 112 113 121 130 137 141 144
15 12 11 6 3 359 357 356 352 355 356 357 360 2 7 8 7 5 5 6 8 8 13 17 15 19 59 113 119 121 116 96 83 112 269 254 216 201 190 175 170 161 157 189 224 231 248 269 259 238 248 259 252 260 271 329 323 324 9 69 56 2 93 63 310 104 119 172 145 138 136 127 128 131 144 136 133 139 132 130 130 128 128 132 137 140 143 146
6 7 9 8 5 0 359 356 356 1 1 1 0 2 6 5 4 4 5 8 10 13 21 26 35 48 114 132 135 138 139 154 85 68 333 293 212 193 176 168 164 149 146 224 243 240 255 267 255 244 258 266 247 248 262 26 353 329 348 37 97 228 63 60 316 118 150 175 148 139 140 133 132 135 139 134 140 140 135 138 137 139 138 139 143 143 146 149
358 1 3 6 5 0 359 357 2 6 10 9 1 2 3 3 4 5 8 12 15 18 24 35 55 76 130 147 151 164 262 270 83 55 322 337 185 190 178 166 163 150 154 250 242 241 249 250 245 241 252 262 249 248 339 39 359 309 3 44 97 118 47 78 288 273 196 167 145 149 145 136 138 137 133 127 131 134 138 140 139 144 142 143 146 145 149 151
357 355 357 3 1 0 0 0 8 15 22 15 5 5 2 4 5 7 11 15 19 20 27 43 70 96 135 164 178 228 271 21 73 24 335 30 106 171 177 171 172 161 168 236 238 244 240 237 237 234 240 252 255 285 13 24 356 315 36 39 46 44 42 181 235 247 237 171 152 159 144 143 147 139 131 111 102 125 133 136 138 143 144 144 145 147 151 152
3 358 357 358 358 1 0 2 14 25 27 17 12 8 4 6 4 6 10 12 18 18 29 50 88 111 144 177 182 223 240 61 64 7 29 47 98 134 166 166 172 166 177 229 237 239 233 232 233 240 245 250 262 10 352 338 359 326 20 28 15 11 5 218 222 211 235 211 163 160 153 152 145 140 139 113 115 135 131 131 137 141 144 145 145 148 151 152
11 7 1 357 359 1 1 5 17 27 26 18 13 8 6 6 3 5 5 7 14 14 36 59 110 136 181 203 244 238 127 70 62 33 37 53 95 122 147 145 165 178 220 232 232 237 235 237 238 248 252 262 313 278 310 275 216 15 29 24 15 14 24 55 83 177 210 260 184 167 163 135 109 123 122 116 134 139 130 133 139 141 145 147 147 148 151 152
14 12 5 0 2 2 4 4 20 29 23 15 8 6 6 4 3 2 1 7 11 19 52 66 110 187 233 264 278 261 91 71 76 47 34 57 76 108 124 143 197 208 232 234 234 244 235 236 239 259 284 306 315 277 317 288 281 51 61 43 38 46 62 67 61 136 177 239 203 177 162 135 126 133 101 109 139 135 135 141 141 145 148 149 148 149 152 151
13 13 7 2 2 5 5 3 27 28 18 10 2 2 3 359 358 356 358 5 11 26 60 62 74 206 260 291 285 272 90 75 102 71 34 59 64 111 134 201 228 221 236 237 233 240 235 247 262 279 290 291 277 277 336 307 350 73 81 68 64 68 71 79 87 150 197 216 197 174 150 125 121 138 116 126 149 142 144 146 145 148 149 151 150 148 151 149
10 11 7 3 1 3 360 3 29 24 13 4 354 357 356 352 349 349 354 359 10 25 52 54 66 101 33 294 298 22 86 98 122 148 173 113 162 175 202 234 231 228 239 237 230 239 240 262 292 270 268 287 269 257 345 313 333 108 109 83 76 86 87 100 121 154 207 207 173 153 142 123 104 131 144 147 162 156 150 149 151 152 150 154 149 147 151 149
6 7 6 3 359 358 353 358 24 16 3 352 350 353 345 343 340 339 347 352 7 20 45 48 56 81 10 305 0 46 85 152 157 183 177 163 197 206 243 243 232 234 242 242 232 237 245 266 278 257 274 305 283 280 93 276 248 136 119 95 78 107 107 100 109 106 257 234 102 141 167 164 152 158 157 164 173 163 158 155 156 155 153 154 149 148 152 149
1 2 2 2 357 351 346 350 16 6 353 346 346 343 335 336 331 328 337 345 3 16 45 43 22 296 289 358 56 49 96 155 169 171 176 181 195 227 257 246 234 237 241 249 245 237 244 256 259 267 291 281 284 358 15 252 243 157 125 148 86 113 108 100 123 108 268 273 20 153 204 183 160 163 166 176 182 168 165 162 159 159 156 155 153 153 153 153
355 356 358 359 354 346 338 339 1 355 345 340 338 336 332 327 322 321 325 336 354 9 51 77 66 258 285 71 77 61 99 122 159 155 175 180 191 227 263 252 234 234 233 240 260 244 238 240 250 273 274 257 296 341 251 250 253 182 160 183 91 23 115 118 151 166 205 251 313 241 249 159 153 168 174 176 183 175 169 169 166 161 159 159 157 158 156 156
348 350 353 355 354 342 330 326 339 345 337 333 334 333 327 317 314 309 311 331 338 354 64 201 264 257 252 107 99 75 106 134 158 154 180 179 197 209 193 255 231 223 228 228 252 240 229 232 238 259 253 233 270 274 236 247 263 232 204 171 92 270 118 123 161 192 209 224 232 229 243 79 171 179 177 176 188 186 169 173 175 164 163 164 160 161 160 157
343 345 347 351 352 339 325 313 317 332 329 332 335 331 328 317 300 294 328 331 316 325 188 270 317 278 278 84 114 194 143 145 146 149 174 195 233 229 160 228 209 207 219 217 233 223 216 227 234 258 269 241 241 247 238 240 237 229 235 201 188 226 139 131 157 196 212 201 204 220 207 134 260 223 186 179 193 196 175 177 182 169 166 167 164 164 161 160
340 340 343 346 348 338 321 299 309 325 326 337 341 338 342 324 239 42 348 329 276 153 182 260 308 274 294 85 157 186 140 128 138 151 157 202 247 168 165 189 182 190 200 201 213 210 207 218 229 249 255 246 245 242 242 251 230 194 230 265 196 275 94 146 134 217 217 227 206 216 224 167 188 227 200 186 194 200 194 191 185 173 170 169 167 166 163 163
338 336 338 340 345 338 314 296 309 318 330 342 346 354 17 41 144 64 356 359 166 177 189 195 215 247 130 119 169 100 102 129 149 169 166 179 203 178 187 192 171 176 185 190 198 204 202 209 222 232 228 230 249 245 226 253 293 322 319 309 194 60 41 162 136 167 187 232 207 190 216 208 181 198 206 196 199 204 205 211 194 176 173 174 170 168 166 165
338 336 334 334 340 335 308 291 297 314 334 350 359 3 13 57 178 145 16 3 241 241 171 167 223 288 80 98 58 84 99 137 161 188 177 172 191 191 201 194 179 185 190 180 188 202 198 206 221 230 234 220 216 229 231 203 266 266 271 285 276 163 191 20 102 168 190 227 209 176 196 211 189 186 202 194 209 224 209 223 226 188 173 177 175 171 168 167
338 336 330 329 334 331 302 279 282 315 335 359 9 353 332 313 219 162 36 252 252 327 20 40 358 348 63 72 59 125 138 153 180 196 176 183 194 191 190 186 184 198 213 186 169 196 207 218 221 222 239 236 216 220 255 295 255 248 255 252 242 209 116 351 335 174 213 258 241 189 186 204 201 187 195 183 191 235 212 201 235 203 175 182 179 171 171 169
338 335 328 324 328 327 293 266 259 298 331 14 16 353 354 2 347 16 342 242 189 9 352 40 8 3 47 30 3 184 181 166 165 162 165 189 204 199 173 184 205 204 220 203 152 176 217 236 231 226 239 282 311 234 255 269 260 253 257 254 245 208 132 220 267 127 234 284 310 264 183 189 205 187 187 184 184 224 212 196 232 214 178 182 184 173 171 168
336 335 328 319 321 322 288 258 246 274 315 18 12 354 14 13 353 342 318 264 150 140 234 94 264 127 84 17 25 218 210 158 129 139 174 202 208 216 167 195 230 197 166 199 175 177 211 242 242 228 175 17 325 280 250 251 257 257 252 257 253 145 131 201 236 273 252 286 295 268 232 175 188 181 184 189 189 212 207 173 232 249 205 183 183 175 172 170
332 334 330 317 316 319 286 247 239 259 279 326 340 341 3 358 342 340 309 278 183 165 204 218 254 149 124 131 102 231 237 166 130 126 158 212 206 236 238 215 235 199 153 205 223 218 206 232 239 189 106 235 245 245 254 255 254 254 251 268 247 160 171 218 187 247 272 280 274 274 267 162 163 183 186 188 190 202 203 169 207 247 260 207 186 177 177 174
333 330 330 320 312 315 292 244 241 256 274 303 310 319 338 344 340 341 305 278 224 156 180 184 266 22 74 77 192 244 273 54 110 114 143 213 200 208 249 237 241 236 194 207 229 249 261 40 54 106 135 235 251 238 243 250 251 248 238 259 270 203 227 20 111 275 286 265 282 329 300 207 175 192 191 182 187 196 211 201 205 224 255 242 199 179 181 177
334 327 329 323 309 315 304 247 239 253 272 286 273 287 323 337 339 339 302 270 221 153 168 180 198 184 97 179 233 268 164 104 84 102 148 226 240 229 240 218 243 244 164 190 228 254 268 55 88 235 220 232 253 245 237 244 256 255 233 238 254 248 252 324 43 301 284 262 152 85 294 248 168 194 200 182 183 200 206 209 216 205 216 248 221 184 182 181
332 328 328 321 311 316 331 226 220 233 262 266 238 285 316 323 330 339 299 257 199 153 168 174 183 162 162 197 196 261 224 143 88 104 164 238 264 266 249 178 224 290 60 222 236 248 262 157 154 239 253 238 243 248 245 249 258 259 257 263 259 251 267 293 317 289 280 306 76 170 278 299 164 198 197 183 185 200 208 207 212 197 187 229 230 195 182 183
329 330 326 320 315 291 233 241 225 230 261 238 225 290 304 313 328 344 271 251 178 150 162 144 141 130 146 194 209 258 239 124 122 140 163 250 223 232 250 209 224 206 170 239 233 195 228 201 182 237 251 242 238 242 236 237 254 258 27 320 292 292 273 271 281 277 279 333 13 230 263 276 262 225 190 177 183 194 206 209 204 198 188 203 222 207 187 184
323 326 325 321 310 283 255 249 226 233 273 243 243 284 300 311 328 327 256 268 119 145 153 130 128 175 176 211 238 269 24 119 182 146 142 229 227 232 258 270 302 2 181 255 249 126 203 232 225 234 240 240 244 249 237 222 240 261 284 299 291 285 275 274 268 270 275 289 266 223 233 260 281 220 192 174 183 200 204 209 200 195 194 193 210 215 195 185
316 318 325 319 302 288 264 247 225 226 251 241 240 267 297 308 315 252 256 285 135 170 139 130 166 188 204 214 212 232 211 195 254 109 147 215 233 255 282 347 308 292 248 257 271 85 188 239 251 246 241 241 245 252 251 230 239 269 281 265 255 261 267 262 250 264 274 269 270 231 211 263 231 158 184 175 192 209 202 208 202 192 195 195 203 211 200 186
310 311 319 316 303 289 272 262 237 229 234 235 237 261 291 289 270 245 246 259 153 151 137 162 171 168 201 212 188 187 210 200 94 136 182 208 199 225 261 262 265 269 242 234 250 265 169 200 256 261 258 275 296 291 275 265 268 277 285 265 239 232 231 234 239 259 272 260 260 198 169 247 268 158 174 189 202 206 191 197 205 195 197 200 201 207 201 188
304 304 310 309 296 273 259 272 248 236 231 231 234 256 270 256 242 254 251 189 172 151 162 187 172 174 214 237 207 168 195 190 158 194 201 191 194 205 221 220 223 245 238 218 217 221 195 191 209 220 246 276 294 277 241 238 260 266 269 263 249 233 216 229 238 232 251 263 259 177 175 214 253 228 188 213 213 200 183 183 199 198 198 202 200 203 205 193
298 297 302 302 283 247 219 215 233 234 218 214 225 247 253 232 228 247 226 148 193 167 171 171 164 193 222 251 238 155 203 184 167 229 245 222 208 201 229 261 260 240 246 223 185 205 199 190 190 181 207 245 255 252 221 207 238 248 246 246 244 241 228 239 246 231 241 249 259 330 268 239 247 239 199 212 209 194 184 181 191 195 197 202 197 197 206 198
294 292 295 294 274 241 220 215 225 222 197 198 232 245 247 238 233 243 201 168 138 104 134 154 175 212 226 231 188 153 238 175 158 239 266 286 253 192 191 301 299 273 276 319 240 220 181 157 172 178 171 202 240 257 237 207 227 237 242 245 240 237 236 241 240 240 252 227 154 46 294 268 245 195 184 203 197 184 184 183 188 194 196 201 196 193 205 202
289 289 294 288 263 242 225 218 219 207 187 201 238 235 235 244 249 289 251 176 112 118 168 182 219 214 230 250 142 162 237 190 164 238 209 236 249 203 167 160 277 279 279 293 291 289 276 158 175 220 128 158 224 253 273 292 263 245 252 244 243 246 247 258 250 246 274 266 136 110 262 276 281 141 129 187 184 169 176 181 185 195 196 198 197 194 204 204
291 291 294 283 255 237 221 214 208 193 188 211 237 229 229 239 235 246 253 163 128 180 178 176 233 228 218 227 113 199 255 207 160 243 238 239 269 321 95 106 106 295 292 292 322 311 280 222 138 167 11 188 243 251 271 288 271 276 279 235 226 252 251 257 266 270 290 295 309 200 238 272 273 218 105 171 177 157 164 176 180 189 193 192 199 199 204 206
303 301 298 287 252 231 213 208 197 184 193 220 233 228 229 241 250 264 344 70 108 205 200 187 220 243 216 185 162 177 223 225 194 231 223 228 290 13 1 22 61 317 310 304 315 297 266 261 126 169 220 201 278 286 245 256 259 309 295 258 269 304 277 262 271 284 284 264 265 250 244 237 146 221 305 329 199 157 157 173 180 187 186 182 196 199 201 210
298 291 289 267 233 223 208 202 190 182 203 229 235 235 240 240 248 295 46 45 18 254 259 232 196 238 250 195 172 162 181 211 214 238 220 193 207 160 350 348 74 310 318 315 304 310 301 290 169 196 240 150 349 296 258 244 268 260 275 288 326 321 286 271 269 268 255 249 265 267 250 227 130 232 302 354 316 202 177 180 178 184 189 187 198 197 199 214
299 275 255 220 216 218 203 191 180 186 210 230 236 243 258 256 225 216 200 232 267 234 249 262 202 198 261 251 167 149 182 205 169 217 258 172 148 156 270 236 144 270 309 303 280 266 296 281 180 138 298 137 151 266 246 202 269 270 254 256 272 278 268 264 258 257 253 245 263 266 246 230 146 213 251 46 318 289 274 217 183 179 189 194 202 197 199 216
306 269 230 209 219 215 194 181 178 197 217 226 232 233 246 257 243 222 219 223 249 245 241 257 251 205 234 267 8 135 200 240 158 212 246 161 127 149 263 270 153 171 284 291 290 302 301 283 237 146 304 228 185 244 246 221 265 267 249 221 244 261 255 259 292 288 270 253 264 276 256 236 68 35 16 15 265 286 317 278 219 187 185 192 201 198 193 207
289 265 211 194 217 203 181 178 187 208 221 227 239 236 232 243 234 208 213 228 232 238 257 259 232 207 220 258 303 244 213 250 286 271 222 134 155 189 178 189 248 238 228 256 268 285 265 263 272 257 238 244 233 230 250 246 241 251 246 235 237 233 222 212 218 257 256 257 268 280 275 248 83 41 22 8 333 285 229 278 268 217 187 187 197 196 190 199
276 263 184 171 196 186 176 182 201 217 225 227 241 250 240 246 242 203 198 226 235 235 264 280 264 235 228 245 251 229 214 236 253 267 252 170 184 210 147 111 257 287 308 254 251 268 260 274 292 269 245 259 263 103 283 286 289 278 267 257 257 252 238 229 240 240 240 252 253 257 275 301 88 348 48 64 339 292 239 233 291 261 200 181 193 193 191 199
261 252 118 165 180 175 181 196 213 220 227 229 238 252 232 219 252 227 191 211 231 231 235 254 269 266 268 268 251 201 229 243 221 222 228 212 204 98 100 96 276 281 286 274 284 5 338 291 292 281 270 273 255 96 301 314 322 297 283 290 288 256 191 170 261 273 264 257 253 256 267 234 123 17 63 94 235 284 296 258 273 272 220 176 191 195 191 199
272 277 72 169 177 177 196 220 220 219 231 240 245 251 215 197 232 234 208 209 220 223 222 221 242 250 243 250 247 208 228 233 225 259 305 276 229 92 95 97 269 255 256 270 290 50 13 273 269 279 282 273 238 167 259 214 237 265 263 314 318 291 275 225 228 272 276 265 260 256 257 196 82 55 72 57 237 281 347 350 320 302 243 164 183 196 195 198
298 298 259 176 178 186 213 232 221 218 223 235 243 238 227 226 233 230 214 212 213 214 223 221 227 235 230 231 235 225 221 196 204 239 288 275 144 103 109 176 250 253 262 322 1 23 325 272 265 275 276 263 232 233 249 214 229 257 283 20 328 284 273 249 220 251 266 268 275 267 260 79 3 350 37 6 325 71 44 13 13 356 2 153 177 194 196 201
296 276 221 178 182 201 226 244 255 261 231 225 230 230 227 223 228 234 233 228 223 221 229 226 221 226 220 214 225 231 234 248 227 205 231 258 123 115 150 186 245 267 332 10 347 332 299 284 296 282 278 276 265 275 290 253 261 262 119 98 257 246 250 251 239 249 257 278 283 265 274 276 246 4 28 353 315 44 75 45 39 20 13 143 178 186 191 201
290 267 206 181 188 208 231 250 265 280 270 241 226 224 232 223 212 222 235 241 228 222 241 243 222 222 223 216 223 226 218 224 240 233 238 255 224 156 153 181 244 271 46 20 303 296 287 281 278 267 272 288 287 295 306 266 257 268 232 215 246 248 280 319 295 278 293 297 283 231 240 269 254 38 16 321 302 18 62 55 63 87 70 132 172 179 187 197
276 285 271 208 193 207 227 240 245 251 260 267 258 222 228 230 217 200 205 228 232 219 236 246 230 228 227 219 224 232 219 209 225 250 245 252 259 182 140 195 246 196 105 253 251 257 276 272 264 252 245 261 271 281 293 265 256 277 274 253 254 259 286 301 293 311 306 282 261 342 300 281 286 76 5 292 308 27 28 22 49 137 157 166 173 174 185 196
277 293 305 318 275 230 227 231 236 240 241 245 260 259 234 230 230 196 184 217 232 217 223 232 226 232 235 225 223 227 221 206 213 243 239 239 264 235 159 203 216 167 174 241 233 227 279 281 277 275 261 263 273 272 272 265 257 285 283 271 269 261 253 255 247 274 287 282 283 302 281 282 302 98 242 276 32 88 268 279 114 165 169 167 175 177 186 199
310 308 295 303 289 275 287 299 281 260 249 242 246 255 250 237 235 219 199 217 222 210 221 231 222 225 232 232 232 235 234 222 217 233 235 234 253 259 229 221 194 171 190 247 231 204 263 283 286 294 292 284 281 272 258 250 231 251 267 263 262 260 256 261 256 232 238 262 281 276 263 276 284 218 211 225 103 115 227 218 124 139 156 150 154 164 172 197
322 322 316 318 300 281 280 286 283 265 254 255 249 244 248 248 246 239 225 225 221 205 212 230 236 230 227 228 228 230 231 233 242 241 224 226 241 247 262 278 241 187 191 248 248 182 206 282 301 301 292 283 275 263 250 249 242 235 239 241 247 255 252 249 257 258 251 263 291 297 288 275 285 302 243 193 121 133 211 193 125 120 125 147 146 135 134 127
313 307 310 312 298 282 273 262 256 256 249 239 234 236 242 242 242 246 236 222 229 231 217 223 237 239 239 237 233 233 229 222 239 252 236 227 232 216 207 241 270 243 229 251 251 201 223 269 282 267 266 276 271 258 248 266 281 268 251 243 239 245 252 251 249 256 273 294 298 290 280 270 304 312 280 205 141 169 183 140 113 109 109 131 142 142 143 129
318 301 295 287 280 281 274 256 243 246 253 251 242 236 241 241 237 245 248 221 227 248 256 250 242 241 246 242 236 242 244 234 234 241 236 226 230 230 221 223 254 274 285 282 253 232 250 273 275 261 267 280 276 283 321 307 291 274 268 289 262 247 262 277 267 208 181 231 262 279 300 331 350 288 270 229 155 172 128 83 66 84 107 115 128 151 153 143